SCP
0 0 -0 -0 -0 -0 -0 0 -0 -0 -0 -0 0 0 0 0 0 0 0 0 0 0 0 0 0 0 0 0 0 0 0 0 0
-0 -0 -0 0 0 0 0 0 0 0 1 1 1 0 0 0 0 0 0 1 1 0 0 0 0 0 0 0 0 0 0 0 0
-0 0 0 0 0 1 1 1 0 1 1 0 -0 -0 0 -0 1 1 1 1 1 1 0 0 0 0 0 0 0 -0 0 0 0
0 -0 1 1 1 1 1 1 2 1 1 1 0 0 0 0 1 1 1 1 1 1 1 0 0 0 0 0 0 0 0 0 0
-0 0 1 1 0 1 1 1 1 1 1 1 1 1 0 0 1 1 1 1 1 1 1 0 0 0 0 0 0 0 0 0 0
0 2 2 1 0 0 0 0 0 0 0 0 0 1 1 1 1 1 1 1 1 1 1 0 0 0 0 0 0 0 0 0 0
1 1 1 1 0 0 0 0 0 0 0 0 0 0 1 1 1 1 1 1 1 1 1 0 0 0 0 0 0 1 1 0 0
1 1 1 0 0 0 0 0 0 0 0 0 0 0 0 0 0 0 0 0 1 1 0 0 0 0 0 0 0 0 0 0 0
0 1 1 0 0 0 0 0 0 0 0 0 0 0 0 0 0 0 0 0 0 1 1 0 0 0 0 0 0 0 0 0 0
0 0 0 0 0 0 0 0 0 0 0 0 0 0 0 0 0 0 0 0 0 0 0 1 0 0 0 0 0 0 0 0 0
0 0 0 0 0 0 0 0 0 0 0 0 0 0 0 0 0 0 0 0 0 0 0 0 0 1 1 0 0 0 0 0 0
0 0 0 0 0 0 0 0 0 0 0 0 0 0 0 0 0 0 0 0 0 0 1 0 0 0 0 1 1 1 0 0 0
0 0 0 0 0 0 0 0 0 0 0 0 0 0 0 0 1 1 1 1 1 1 0 0 0 0 0 0 0 0 0 0 0
0 0 0 0 0 0 0 0 0 0 0 0 0 0 0 0 0 0 0 1 1 1 1 1 1 0 0 0 0 0 0 0 0
0 0 0 0 0 0 0 0 0 0 0 0 0 0 0 0 0 0 1 1 1 1 1 1 0 0 0 0 0 0 0 0 0
0 0 0 0 0 0 0 0 0 0 0 0 0 0 0 0 0 0 0 0 0 0 0 0 0 0 0 0 0 0 0 0 0
0 0 0 0 0 0 0 0 0 0 0 0 0 0 0 0 0 0 0 0 0 0 0 0 0 0 0 0 0 0 0 0 0
0 0 0 0 0 0 0 0 0 0 0 0 0 0 0 0 0 0 0 0 0 0 0 0 0 0 0 0 0 0 0 0 0
0 0 0 0 0 0 0 0 0 0 0 0 0 0 0 0 0 0 0 0 0 0 0 0 0 0 0 0 0 0 0 0 0
0 0 0 0 0 0 0 0 0 0 0 0 0 0 0 0 0 0 0 0 0 0 0 0 0 0 0 0 0 0 0 0 0
Wind_Speed_500mb
4 27 40 33 38 49 50 37 60 44 63 78 52 40 29 29 35 37 41 38 41 35 33 26 21 32 35 29 36 39 43 50 50
13 37 41 23 22 9 22 49 56 56 84 57 21 23 29 32 36 40 40 39 43 44 41 36 36 38 34 36 38 48 42 39 43
19 32 43 30 26 17 22 37 43 53 48 29 38 42 32 37 37 32 36 36 42 44 43 41 47 33 24 54 53 34 35 36 41
66 40 52 28 16 12 11 24 25 44 35 18 22 16 24 35 35 34 37 34 35 43 40 40 42 40 38 8 34 37 33 38 29
43 31 33 35 27 17 12 12 18 10 9 3 3 17 25 26 27 33 42 43 39 35 34 30 36 41 37 36 38 32 36 44 36
27 25 27 21 24 14 6 23 11 10 4 6 14 19 20 21 30 31 36 41 45 37 34 34 34 44 48 46 29 31 37 39 43
32 33 31 25 17 11 3 7 15 5 14 16 21 26 19 19 23 24 21 26 32 32 29 26 24 25 30 32 34 37 37 37 39
37 29 18 9 4 6 2 3 10 9 12 14 18 21 21 21 24 27 24 21 22 24 22 20 21 24 22 27 30 32 33 34 38
22 20 13 9 9 13 14 13 18 19 21 20 19 20 14 17 21 26 29 25 22 22 22 16 15 15 11 20 17 17 27 37 45
35 31 29 23 16 12 13 14 14 22 27 33 30 29 33 37 40 41 38 36 36 34 30 29 24 21 20 23 22 20 23 31 42
34 33 32 31 31 31 31 30 29 24 19 22 30 35 34 33 36 43 47 51 50 49 46 41 42 43 40 38 36 29 31 37 35
30 33 35 35 36 37 38 39 41 44 47 49 45 44 43 42 44 47 48 50 51 51 52 51 48 50 53 53 54 46 43 43 44
30 28 29 35 35 32 29 30 31 37 42 44 46 47 50 50 45 47 52 54 56 53 55 54 53 55 56 59 64 57 55 48 53
39 44 50 56 61 63 62 61 58 55 51 45 44 41 42 42 47 51 55 56 59 62 62 61 62 61 58 58 56 57 56 58 59
47 54 61 63 61 62 63 61 62 65 63 60 57 49 52 58 62 62 61 63 63 65 68 69 68 63 61 64 61 58 56 54 64
52 53 53 58 57 56 54 53 54 59 62 62 58 58 65 70 70 70 71 68 66 68 67 70 69 67 66 61 57 57 56 59 58
47 49 55 58 58 59 57 54 56 57 55 56 55 58 63 64 64 67 66 66 66 68 70 66 68 67 64 53 46 45 45 45 50
44 46 48 51 61 61 61 58 60 60 52 48 51 57 61 63 63 62 63 57 56 60 61 59 61 61 54 51 47 46 41 43 37
42 46 46 50 54 58 59 61 60 58 60 54 59 66 63 61 61 56 57 57 59 57 59 57 51 49 50 50 51 48 51 54 54
41 40 43 50 49 47 52 64 63 60 63 61 59 60 58 57 59 58 55 55 53 58 54 56 56 51 50 53 54 50 54 53 48
Wind_Direction_500mb
189 224 191 189 229 255 260 227 213 241 249 228 220 218 225 241 240 237 241 243 248 250 254 251 237 237 245 264 256 245 242 246 250
203 210 150 135 104 95 217 215 242 224 232 233 196 254 252 257 252 247 250 244 251 252 257 252 252 248 258 252 281 265 247 254 262
288 224 129 119 118 111 176 228 246 236 247 246 206 256 241 255 259 256 263 257 253 253 254 250 252 267 260 329 287 250 257 268 272
234 210 131 132 115 93 104 119 209 231 242 230 260 290 261 253 266 268 266 267 269 260 260 261 258 248 243 270 282 246 252 251 270
218 158 142 135 129 131 163 151 127 136 241 138 123 256 276 287 277 277 266 272 273 272 263 261 272 261 256 271 252 253 266 251 260
162 144 147 157 163 169 83 181 149 122 120 302 296 300 303 294 289 276 270 271 275 270 274 285 276 261 253 277 262 261 263 247 255
142 142 149 153 168 179 342 174 209 281 322 327 335 320 305 288 298 298 298 282 277 288 292 296 295 286 273 278 259 256 251 255 258
133 135 137 131 35 353 17 290 308 301 329 321 327 326 301 304 317 320 316 320 306 307 307 310 288 281 278 278 271 268 262 259 261
135 169 179 212 233 215 220 245 267 257 280 273 266 278 277 286 295 301 302 297 294 302 315 324 327 351 293 281 289 269 269 265 273
41 36 40 39 34 0 331 309 283 271 279 258 268 275 286 294 299 301 300 297 295 298 295 299 304 303 298 296 302 298 287 276 266
29 18 8 359 350 341 333 326 323 323 315 284 272 275 275 279 282 292 298 299 300 302 298 290 289 290 291 287 286 288 285 283 281
11 357 348 342 334 327 321 315 313 308 304 299 289 287 285 284 287 287 290 289 293 298 297 295 295 293 287 282 277 276 274 275 271
11 2 352 341 338 339 333 324 318 309 296 289 287 288 285 281 277 281 282 279 279 285 284 285 291 294 288 282 277 274 265 259 266
337 334 331 328 323 319 315 311 311 308 301 293 293 291 288 283 277 272 273 273 271 271 276 279 279 283 285 284 273 268 266 253 249
337 335 331 328 323 318 313 311 310 309 306 306 298 291 286 287 284 282 282 280 277 272 272 274 276 278 280 280 271 265 267 261 255
338 339 339 336 332 331 329 328 319 306 302 302 300 292 287 287 287 286 285 281 277 274 268 265 266 272 277 276 272 270 266 256 258
338 340 344 344 343 338 341 340 333 330 318 311 310 306 301 296 291 287 281 275 278 272 270 263 264 271 273 270 272 271 262 253 259
345 347 351 349 350 339 339 340 337 335 333 326 317 311 309 307 302 295 289 285 280 275 273 269 264 272 268 265 270 263 273 261 263
347 346 347 342 337 334 337 336 329 324 320 318 313 308 308 308 308 303 297 296 289 277 273 271 261 262 265 267 268 268 264 259 255
355 357 357 352 352 349 343 339 333 328 321 316 310 306 300 299 306 301 300 299 289 287 278 264 262 262 258 257 259 265 265 260 261
Wind_Speed_850mb
4 27 40 33 38 49 50 37 60 44 63 78 52 40 29 29 35 37 41 38 41 35 33 26 21 32 35 29 36 39 43 50 50
13 37 41 23 22 9 22 49 56 56 84 57 21 23 29 32 36 40 40 39 43 44 41 36 36 38 34 36 38 48 42 39 43
19 32 43 30 26 17 22 37 43 53 48 29 38 42 32 37 37 32 36 36 42 44 43 41 47 33 24 54 53 34 35 36 41
66 40 52 28 16 12 11 24 25 44 35 18 22 16 24 35 35 34 37 34 35 43 40 40 42 40 38 8 34 37 33 38 29
43 31 33 35 27 17 12 12 18 10 9 3 3 17 25 26 27 33 42 43 39 35 34 30 36 41 37 36 38 32 36 44 36
27 25 27 21 24 14 6 23 11 10 4 6 14 19 20 21 30 31 36 41 45 37 34 34 34 44 48 46 29 31 37 39 43
32 33 31 25 17 11 3 7 15 5 14 16 21 26 19 19 23 24 21 26 32 32 29 26 24 25 30 32 34 37 37 37 39
37 29 18 9 4 6 2 3 10 9 12 14 18 21 21 21 24 27 24 21 22 24 22 20 21 24 22 27 30 32 33 34 38
22 20 13 9 9 13 14 13 18 19 21 20 19 20 14 17 21 26 29 25 22 22 22 16 15 15 11 20 17 17 27 37 45
35 31 29 23 16 12 13 14 14 22 27 33 30 29 33 37 40 41 38 36 36 34 30 29 24 21 20 23 22 20 23 31 42
34 33 32 31 31 31 31 30 29 24 19 22 30 35 34 33 36 43 47 51 50 49 46 41 42 43 40 38 36 29 31 37 35
30 33 35 35 36 37 38 39 41 44 47 49 45 44 43 42 44 47 48 50 51 51 52 51 48 50 53 53 54 46 43 43 44
30 28 29 35 35 32 29 30 31 37 42 44 46 47 50 50 45 47 52 54 56 53 55 54 53 55 56 59 64 57 55 48 53
39 44 50 56 61 63 62 61 58 55 51 45 44 41 42 42 47 51 55 56 59 62 62 61 62 61 58 58 56 57 56 58 59
47 54 61 63 61 62 63 61 62 65 63 60 57 49 52 58 62 62 61 63 63 65 68 69 68 63 61 64 61 58 56 54 64
52 53 53 58 57 56 54 53 54 59 62 62 58 58 65 70 70 70 71 68 66 68 67 70 69 67 66 61 57 57 56 59 58
47 49 55 58 58 59 57 54 56 57 55 56 55 58 63 64 64 67 66 66 66 68 70 66 68 67 64 53 46 45 45 45 50
44 46 48 51 61 61 61 58 60 60 52 48 51 57 61 63 63 62 63 57 56 60 61 59 61 61 54 51 47 46 41 43 37
42 46 46 50 54 58 59 61 60 58 60 54 59 66 63 61 61 56 57 57 59 57 59 57 51 49 50 50 51 48 51 54 54
41 40 43 50 49 47 52 64 63 60 63 61 59 60 58 57 59 58 55 55 53 58 54 56 56 51 50 53 54 50 54 53 48
Wind_Direction_850mb
189 224 191 189 229 255 260 227 213 241 249 228 220 218 225 241 240 237 241 243 248 250 254 251 237 237 245 264 256 245 242 246 250
203 210 150 135 104 95 217 215 242 224 232 233 196 254 252 257 252 247 250 244 251 252 257 252 252 248 258 252 281 265 247 254 262
288 224 129 119 118 111 176 228 246 236 247 246 206 256 241 255 259 256 263 257 253 253 254 250 252 267 260 329 287 250 257 268 272
234 210 131 132 115 93 104 119 209 231 242 230 260 290 261 253 266 268 266 267 269 260 260 261 258 248 243 270 282 246 252 251 270
218 158 142 135 129 131 163 151 127 136 241 138 123 256 276 287 277 277 266 272 273 272 263 261 272 261 256 271 252 253 266 251 260
162 144 147 157 163 169 83 181 149 122 120 302 296 300 303 294 289 276 270 271 275 270 274 285 276 261 253 277 262 261 263 247 255
142 142 149 153 168 179 342 174 209 281 322 327 335 320 305 288 298 298 298 282 277 288 292 296 295 286 273 278 259 256 251 255 258
133 135 137 131 35 353 17 290 308 301 329 321 327 326 301 304 317 320 316 320 306 307 307 310 288 281 278 278 271 268 262 259 261
135 169 179 212 233 215 220 245 267 257 280 273 266 278 277 286 295 301 302 297 294 302 315 324 327 351 293 281 289 269 269 265 273
41 36 40 39 34 0 331 309 283 271 279 258 268 275 286 294 299 301 300 297 295 298 295 299 304 303 298 296 302 298 287 276 266
29 18 8 359 350 341 333 326 323 323 315 284 272 275 275 279 282 292 298 299 300 302 298 290 289 290 291 287 286 288 285 283 281
11 357 348 342 334 327 321 315 313 308 304 299 289 287 285 284 287 287 290 289 293 298 297 295 295 293 287 282 277 276 274 275 271
11 2 352 341 338 339 333 324 318 309 296 289 287 288 285 281 277 281 282 279 279 285 284 285 291 294 288 282 277 274 265 259 266
337 334 331 328 323 319 315 311 311 308 301 293 293 291 288 283 277 272 273 273 271 271 276 279 279 283 285 284 273 268 266 253 249
337 335 331 328 323 318 313 311 310 309 306 306 298 291 286 287 284 282 282 280 277 272 272 274 276 278 280 280 271 265 267 261 255
338 339 339 336 332 331 329 328 319 306 302 302 300 292 287 287 287 286 285 281 277 274 268 265 266 272 277 276 272 270 266 256 258
338 340 344 344 343 338 341 340 333 330 318 311 310 306 301 296 291 287 281 275 278 272 270 263 264 271 273 270 272 271 262 253 259
345 347 351 349 350 339 339 340 337 335 333 326 317 311 309 307 302 295 289 285 280 275 273 269 264 272 268 265 270 263 273 261 263
347 346 347 342 337 334 337 336 329 324 320 318 313 308 308 308 308 303 297 296 289 277 273 271 261 262 265 267 268 268 264 259 255
355 357 357 352 352 349 343 339 333 328 321 316 310 306 300 299 306 301 300 299 289 287 278 264 262 262 258 257 259 265 265 260 261